When you browse on this site, cookies collect data to enhance your experience and personalize the content and advertising you see.
Visit our Privacy Policy to learn more. By continuing to use the site, you agree to this use of cookies and data.
  • In Lithuania
  • List of Countries
  • For 7 days
  • Water Temperature
  • Satellite Maps
  • Weather Map
  • Weather Widgets
  • user-avatar
    Login

    Hourly Weather Kaprun

    Today, 24 June, Monday

    Time Temperature Precipitation Wind Pressure Humidity
    00:00 +7°C° 0 mm 1 mps 600 mmHg 94%
    01:00 +7°C° 0 mm 1 mps 600 mmHg 93%
    02:00 +7°C° 0 mm 1 mps 600 mmHg 91%
    03:00 +7°C° 0 mm 1 mps 600 mmHg 89%
    04:00 +7°C° 0 mm 1 mps 600 mmHg 87%
    05:00 +9°C° 0 mm 1 mps 601 mmHg 81%
    06:00 +11°C° 0 mm 1 mps 602 mmHg 76%
    07:00 +12°C° 0 mm 0 mps 603 mmHg 71%
    08:00 +14°C° 0 mm 1 mps 604 mmHg 65%
    09:00 +16°C° 0 mm 1 mps 604 mmHg 60%
    10:00 +18°C° 0 mm 1 mps 605 mmHg 54%
    11:00 +19°C° 0 mm 1 mps 605 mmHg 52%
    12:00 +20°C° 0 mm 1 mps 605 mmHg 51%
    13:00 +21°C° 0 mm 1 mps 605 mmHg 49%
    14:00 +20°C° 0 mm 1 mps 605 mmHg 50%
    15:00 +20°C° 0 mm 1 mps 605 mmHg 51%
    16:00 +20°C° 0 mm 1 mps 605 mmHg 52%
    17:00 +19°C° 0 mm 1 mps 605 mmHg 62%
    18:00 +18°C° 0 mm 1 mps 604 mmHg 72%
    19:00 +15°C° 0 mm 1 mps 604 mmHg 82%
    20:00 +14°C° 0 mm 1 mps 604 mmHg 84%
    21:00 +12°C° 0 mm 1 mps 603 mmHg 85%
    22:00 +11°C° 0 mm 1 mps 603 mmHg 87%
    23:00 +10°C° 0 mm 1 mps 603 mmHg 86%

    Tomorrow, 25 June, Tuesday

    Time Temperature Precipitation Wind Pressure Humidity
    00:00 +10°C° 0 mm 1 mps 603 mmHg 86%
    01:00 +9°C° 0 mm 2 mps 603 mmHg 85%
    02:00 +9°C° 0 mm 2 mps 602 mmHg 83%
    03:00 +10°C° 0 mm 1 mps 602 mmHg 80%
    04:00 +10°C° 0 mm 1 mps 602 mmHg 77%
    05:00 +12°C° 0 mm 1 mps 603 mmHg 71%
    06:00 +14°C° 0 mm 1 mps 604 mmHg 65%
    07:00 +16°C° 0 mm 0 mps 605 mmHg 59%
    08:00 +17°C° 0 mm 0 mps 606 mmHg 53%
    09:00 +21°C° 0 mm 1 mps 607 mmHg 46%
    10:00 +23°C° 0 mm 1 mps 608 mmHg 40%
    11:00 +25°C° 0 mm 1 mps 608 mmHg 30%
    12:00 +25°C° 0 mm 1 mps 609 mmHg 28%
    13:00 +26°C° 0 mm 2 mps 609 mmHg 26%
    14:00 +26°C° 0 mm 2 mps 609 mmHg 28%
    15:00 +25°C° 0 mm 2 mps 609 mmHg 30%
    16:00 +25°C° 0 mm 3 mps 608 mmHg 32%
    17:00 +23°C° 0 mm 2 mps 608 mmHg 44%
    18:00 +21°C° 0 mm 1 mps 607 mmHg 57%
    19:00 +19°C° 0 mm 1 mps 607 mmHg 69%
    20:00 +16°C° 0 mm 1 mps 606 mmHg 72%
    21:00 +14°C° 0 mm 1 mps 606 mmHg 75%
    22:00 +12°C° 0 mm 1 mps 605 mmHg 78%
    23:00 +12°C° 0 mm 1 mps 605 mmHg 74%

    Day after tomorrow, 26 June, Wednesday

    Time Temperature Precipitation Wind Pressure Humidity
    00:00 +12°C° 0 mm 1 mps 605 mmHg 69%
    01:00 +12°C° 0 mm 1 mps 605 mmHg 64%
    02:00 +12°C° 0 mm 1 mps 605 mmHg 60%
    03:00 +12°C° 0 mm 1 mps 605 mmHg 55%
    04:00 +12°C° 0 mm 1 mps 605 mmHg 50%
    05:00 +14°C° 0 mm 1 mps 606 mmHg 48%
    06:00 +18°C° 0 mm 1 mps 607 mmHg 46%
    07:00 +20°C° 0 mm 1 mps 608 mmHg 44%
    08:00 +22°C° 0 mm 1 mps 609 mmHg 39%
    09:00 +23°C° 0 mm 1 mps 609 mmHg 34%
    10:00 +25°C° 0 mm 2 mps 610 mmHg 29%
    11:00 +25°C° 0 mm 2 mps 610 mmHg 28%
    12:00 +26°C° 0 mm 2 mps 610 mmHg 26%
    13:00 +27°C° 0 mm 2 mps 610 mmHg 25%
    14:00 +26°C° 0 mm 2 mps 610 mmHg 26%
    15:00 +26°C° 0 mm 2 mps 610 mmHg 28%
    16:00 +26°C° 0 mm 2 mps 609 mmHg 30%
    17:00 +24°C° 0 mm 2 mps 609 mmHg 41%
    18:00 +21°C° 0 mm 2 mps 608 mmHg 53%
    19:00 +20°C° 0 mm 1 mps 607 mmHg 64%
    20:00 +18°C° 0 mm 1 mps 607 mmHg 66%
    21:00 +16°C° 0 mm 1 mps 606 mmHg 67%
    22:00 +14°C° 0 mm 1 mps 605 mmHg 69%
    23:00 +13°C° 0 mm 1 mps 605 mmHg 66%

    27 June, Thursday

    Time Temperature Precipitation Wind Pressure Humidity
    00:00 +13°C° 0 mm 1 mps 605 mmHg 63%
    01:00 +13°C° 0 mm 1 mps 605 mmHg 60%
    02:00 +13°C° 0 mm 1 mps 605 mmHg 58%
    03:00 +13°C° 0 mm 1 mps 604 mmHg 56%
    04:00 +13°C° 0 mm 1 mps 604 mmHg 53%
    05:00 +15°C° 0 mm 1 mps 605 mmHg 51%
    06:00 +18°C° 0 mm 1 mps 606 mmHg 50%
    07:00 +20°C° 0 mm 1 mps 607 mmHg 48%
    08:00 +21°C° 0 mm 1 mps 607 mmHg 43%
    09:00 +23°C° 0 mm 2 mps 608 mmHg 39%
    10:00 +24°C° 0 mm 2 mps 608 mmHg 34%
    11:00 +25°C° 0 mm 2 mps 608 mmHg 34%
    12:00 +25°C° 0 mm 3 mps 608 mmHg 34%
    13:00 +26°C° 0 mm 3 mps 608 mmHg 34%
    14:00 +25°C° 0 mm 3 mps 608 mmHg 36%
    15:00 +25°C° 0 mm 3 mps 607 mmHg 37%
    16:00 +25°C° 0 mm 3 mps 607 mmHg 39%
    17:00 +22°C° 0.2 mm 3 mps 606 mmHg 50%
    18:00 +20°C° 0.2 mm 2 mps 605 mmHg 62%
    19:00 +18°C° 0.2 mm 2 mps 604 mmHg 74%
    20:00 +17°C° 0.1 mm 2 mps 604 mmHg 77%
    21:00 +15°C° 0.1 mm 2 mps 604 mmHg 81%
    22:00 +13°C° 0.1 mm 1 mps 603 mmHg 84%
    23:00 +13°C° 0 mm 1 mps 603 mmHg 85%

    28 June, Friday

    Time Temperature Precipitation Wind Pressure Humidity
    00:00 +13°C° 0 mm 2 mps 603 mmHg 86%
    01:00 +12°C° 0 mm 2 mps 602 mmHg 88%
    02:00 +12°C° 0 mm 2 mps 602 mmHg 88%
    03:00 +12°C° 0 mm 2 mps 602 mmHg 88%
    04:00 +10°C° 0 mm 2 mps 602 mmHg 88%
    05:00 +13°C° 0 mm 2 mps 602 mmHg 86%
    06:00 +14°C° 0 mm 2 mps 603 mmHg 85%
    07:00 +16°C° 0 mm 2 mps 604 mmHg 83%
    08:00 +17°C° 0 mm 2 mps 604 mmHg 72%
    09:00 +18°C° 0 mm 2 mps 605 mmHg 62%
    10:00 +20°C° 0 mm 3 mps 605 mmHg 51%
    11:00 +20°C° 0 mm 3 mps 605 mmHg 47%
    12:00 +21°C° 0 mm 3 mps 605 mmHg 43%
    13:00 +21°C° 0 mm 3 mps 605 mmHg 40%
    14:00 +21°C° 0 mm 3 mps 605 mmHg 41%
    15:00 +21°C° 0 mm 3 mps 605 mmHg 42%
    16:00 +21°C° 0 mm 3 mps 605 mmHg 43%
    17:00 +19°C° 0 mm 3 mps 604 mmHg 52%
    18:00 +18°C° 0 mm 2 mps 604 mmHg 61%
    19:00 +16°C° 0 mm 2 mps 603 mmHg 70%
    20:00 +14°C° 0 mm 2 mps 602 mmHg 74%
    21:00 +12°C° 0 mm 1 mps 602 mmHg 79%
    22:00 +10°C° 0 mm 1 mps 601 mmHg 83%
    23:00 +10°C° 0 mm 1 mps 601 mmHg 81%

    29 June, Saturday

    Time Temperature Precipitation Wind Pressure Humidity
    00:00 +9°C° 0 mm 1 mps 601 mmHg 78%
    01:00 +9°C° 0 mm 1 mps 601 mmHg 76%
    02:00 +9°C° 0 mm 1 mps 600 mmHg 72%
    03:00 +9°C° 0 mm 1 mps 600 mmHg 68%
    04:00 +8°C° 0 mm 1 mps 600 mmHg 63%
    05:00 +11°C° 0 mm 1 mps 601 mmHg 57%
    06:00 +13°C° 0 mm 1 mps 602 mmHg 51%
    07:00 +16°C° 0 mm 1 mps 603 mmHg 45%
    08:00 +18°C° 0 mm 1 mps 604 mmHg 40%
    09:00 +20°C° 0 mm 1 mps 605 mmHg 35%
    10:00 +21°C° 0 mm 2 mps 605 mmHg 29%
    11:00 +23°C° 0 mm 2 mps 605 mmHg 28%
    12:00 +23°C° 0 mm 2 mps 605 mmHg 27%
    13:00 +24°C° 0 mm 2 mps 605 mmHg 26%
    14:00 +24°C° 0 mm 2 mps 605 mmHg 27%
    15:00 +24°C° 0 mm 2 mps 605 mmHg 28%
    16:00 +24°C° 0 mm 2 mps 605 mmHg 29%
    17:00 +21°C° 0 mm 2 mps 604 mmHg 40%
    18:00 +20°C° 0 mm 1 mps 604 mmHg 51%
    19:00 +18°C° 0 mm 1 mps 603 mmHg 62%
    20:00 +16°C° 0 mm 1 mps 603 mmHg 61%
    21:00 +14°C° 0 mm 1 mps 602 mmHg 60%
    22:00 +12°C° 0 mm 1 mps 602 mmHg 59%
    23:00 +12°C° 0 mm 1 mps 602 mmHg 55%
    Show more